User: anonymous   Login
Location: Unspecified
(0.0000°N, 0.0000°E)
Time: 00:38:30
(UTC+00:00)
Language:

EGG - Orbit

View from above orbital plane
View from above orbital plane
View from above satellite
View from above satellite

Ground track
Ground track

The orbit data is extracted from the following two-line orbital elements,

1 41933U 98067KV  17206.35786389 +.00012661 +00000-0 +15505-3 0  9990
2 41933 051.6371 202.7861 0006367 054.0996 306.0587 15.60755110029502
Epoch (UTC): 25 July 2017 08:35:19
Eccentricity: 0.0006367
inclination: 51.6371°
perigee height: 381 km
apogee height: 390 km
right ascension of ascending node: 202.7861°
argument of perigee: 54.0996°
revolutions per day: 15.60755110
mean anomaly at epoch: 306.0587°
orbit number at epoch: 2950

The dashed part of the orbit path shows where the satellite is in the earth's shadow,  

DLR